CZ-6A DEB, 61420

Orbit data source: Space-Track

CZ-6A DEB, 61420 is space debris in LEO originally from a launch on Tue, 06 Aug 2024 UTC launched from the Taiyaun Space Center, China (TSC). Debris objects in space refer to the collection of defunct objects orbiting the Earth. Examples of debris include non-operational satellites, rocket bodies, and fragments generated from explosions, collisions, or faulty payload assembly.

Loading next visibility...
Identifier
61420, 2024-140YM
Orbit
LEO
Country
Flag of CNCN / PRC
Related business
Manufacturer
SAST
Mission
Spacecraft
Bus & Motor
Unknown
Mass
Unknown
Launch date (UTC)
2024-08-06 (2 years ago)
Launch vehicle
Unknown
Launch site
Taiyaun Space Center, China (TSC)
Object type
Payload
Rocket body
Debris
Shape & HBR
Unknown shape, 0.1 m
Radar Cross Section
Medium (>0.1 m² and <1 m²)

Expand to show TLE details & history
Last TLE update: 1 day ago

TLE from 1 day ago
0 CZ-6A DEB
1 61420U 24140YM  26170.72579050  .00001944  00000-0  67626-3 0  9993
2 61420  88.9816 271.2486 0044128 224.0173 135.7509 14.34588674 91115
Epoch: 2026-06-19T17:25Z
TLE epoch observation values (Epoch: 2026-06-19T17:25:08.299Z)
Latitude
0.00001°
Longitude
102.01338°
Altitude
802.195 km
Speed
7.44 km/s
True Right ascension
18h 04m 59s
True Declination
0° 00' 00"
Sunlit
Object was in full shadow at epoch
Visualization orbit readout
Latitude
Unknown
Longitude
Unknown
Altitude
Unknown
Speed
Unknown
Apparent Right ascension
Unknown
Apparent Declination
Unknown
Sunlit
N/A
Visualization observer readout
Local Sidereal Time
07:21:48
Azimuth
Unknown
Elevation
Unknown
Doppler factor
Unknown
Orbital elements
Apogee altitude
804.922 km
Perigee altitude
741.806 km
Semi-major axis
7,151.501 km
Eccentricity
0.00441
Inclination
88.9816°
RAAN
271.2486°
Arg. of periapsis
224.0173°
True anomaly
136.10235°
Mean anomaly
135.7509°
Eccentric anomaly
135.92677°
Mean motion
3.58878 °/min
Orbital period
100.31 mins
BSTAR
0.00067626
Loading maneuver chart data...
Computing Atmospheric mass density...
Loading historical data...
Loading historical data...
Loading historical data...
Loading historical data...
Loading historical data...
Loading historical data...
Loading historical data...

Documentation

Showing up to 5 results
|